Volver al catálogo

GRUS-3C

ActivoRadioaficionadoSSO
NORAD 69891·PAYLOAD·🇩🇪 Germany

Lanzado Jul 7, 2026 desde Vandenberg Space Force Base

Loading…

Próximos Pases (próximas 24 horas)

TLE

ActualizadoSource: Space-Track

Época: Sep 14, 2026, 12:09 UTC

1 69891U 26156Y   26257.50684707  .00000573  00000-0  62581-4 0  9993
2 69891  97.7432 156.7595 0004635 276.8983  83.1708 14.91611373 10314

Sigue GRUS-3C en tiempo real con AllMySat

Download on the App Store